Fryeburg, ME

5:14 PM EST on December 08, 2016 (GMT -0500)
Eastern Slopes Regional

Weather History for KIZG - February, 2013

Change the Weather History Date:

Thursday, February 21, 2013

  Actual Average Record
Temperature  
Mean Temperature 22 °F -  
Max Temperature 27 °F 32 °F 53 °F (2003)
Min Temperature 18 °F 9 °F -16 °F (2015)
Degree Days  
Heating Degree Days 42    
Moisture  
Dew Point 10 °F    
Average Humidity 55    
Maximum Humidity 66    
Minimum Humidity 44    
Precipitation  
Precipitation 0.00 in - - ()
Sea Level Pressure  
Sea Level Pressure 29.85 in    
Wind  
Wind Speed 11 mph (NW)    
Max Wind Speed 17 mph    
Max Gust Speed 37 mph    
Visibility 10 miles    
Events Snow    
Averages and records for this station are not official NWS values.
T = Trace of Precipitation, MM = Missing Value Source: NWS Daily Summary

Daily Weather History Graph

Daily Weather History Graph

Search for Another Location

Airport or City:

Trip Planner

Search our weather history database for the weather conditions in past years. The results will help you decide how hot, cold, wet, or windy it might be!

Date:

Astronomy

Feb. 21, 2013 Rise Set
Actual Time 6:33 AM EST 5:21 PM EST
Civil Twilight 6:04 AM EST 5:51 PM EST
Nautical Twilight 5:30 AM EST 6:24 PM EST
Astronomical Twilight 4:57 AM EST 6:58 PM EST
Moon 1:28 PM EST (2/21) 3:41 AM EST (2/21)
Length of Visible Light 11h 47m
Length of Day
10h 48m
Waxing Gibbous, 83% of the Moon is Illuminated
Feb 21
Waxing Gibbous
Feb 25
Full
Mar 4
Last Quarter
Mar 11
New
Mar 19
First Quarter

Hourly Weather History & Observations

Time (EST) Temp. Windchill Dew Point Humidity Pressure Visibility Wind Dir Wind Speed Gust Speed Precip Events Conditions
12:02 AM 26.6 °F 13.8 °F 10.4 °F 51% 29.63 in 10.0 mi West 17.3 mph 36.8 mph N/A   Partly Cloudy
12:54 AM 26.1 °F 17.6 °F 12.9 °F 58% 29.65 in 10.0 mi WSW 8.1 mph - N/A   Partly Cloudy
1:54 AM 25.0 °F 16.3 °F 12.0 °F 58% 29.65 in 10.0 mi West 8.1 mph - N/A   Clear
2:54 AM 24.1 °F 15.2 °F 12.0 °F 60% 29.68 in 10.0 mi NW 8.1 mph - N/A   Partly Cloudy
3:54 AM 21.9 °F 7.8 °F 7.0 °F 53% 29.68 in 10.0 mi WNW 17.3 mph 28.8 mph N/A   Clear
4:54 AM 19.9 °F 8.6 °F 6.1 °F 55% 29.69 in 10.0 mi West 10.4 mph 21.9 mph N/A   Clear
5:54 AM 18.0 °F 6.9 °F 3.9 °F 54% 29.70 in 10.0 mi West 9.2 mph 20.7 mph N/A   Clear
6:54 AM 18.0 °F 8.7 °F 3.0 °F 52% 29.73 in 10.0 mi West 6.9 mph - N/A   Clear
7:54 AM 19.9 °F 12.1 °F 1.9 °F 46% 29.75 in 10.0 mi WNW 5.8 mph - N/A   Partly Cloudy
8:54 AM 23.0 °F 17.0 °F 3.9 °F 44% 29.77 in 10.0 mi WNW 4.6 mph - 0.00 in   Mostly Cloudy
9:54 AM 23.0 °F 14.7 °F 3.9 °F 44% 29.78 in 10.0 mi Variable 6.9 mph - 0.00 in   Overcast
10:54 AM 24.1 °F 14.4 °F 9.0 °F 53% 29.80 in 10.0 mi NNW 9.2 mph - N/A   Overcast
11:20 AM 23.0 °F 17.0 °F 10.4 °F 59% 29.78 in 6.0 mi NNW 4.6 mph - 0.00 in Snow Light Snow
11:50 AM 24.8 °F 17.9 °F 12.2 °F 59% 29.78 in 9.0 mi Variable 5.8 mph - 0.00 in   Overcast
1:54 PM 27.0 °F 19.5 °F 10.0 °F 49% 29.83 in 10.0 mi North 6.9 mph - N/A   Overcast
2:54 PM 27.0 °F 18.7 °F 10.0 °F 49% 29.86 in 10.0 mi NNW 8.1 mph 18.4 mph N/A   Overcast
3:54 PM 27.0 °F 15.2 °F 10.9 °F 51% 29.89 in 10.0 mi North 15.0 mph 25.3 mph N/A   Overcast
4:54 PM 26.1 °F 15.0 °F 12.0 °F 55% 29.94 in 10.0 mi North 12.7 mph - N/A   Overcast
5:54 PM 25.0 °F 12.2 °F 12.0 °F 58% 30.00 in 10.0 mi NNW 16.1 mph 24.2 mph N/A   Scattered Clouds
6:54 PM 26.1 °F 15.6 °F 14.0 °F 60% 30.04 in 10.0 mi North 11.5 mph 18.4 mph N/A   Overcast
7:54 PM 27.0 °F 16.1 °F 14.0 °F 58% 30.08 in 10.0 mi North 12.7 mph 19.6 mph N/A   Overcast
8:54 PM 26.1 °F 15.6 °F 14.0 °F 60% 30.12 in 10.0 mi NNW 11.5 mph 21.9 mph N/A   Clear
9:54 PM 26.1 °F 16.2 °F 15.1 °F 63% 30.14 in 10.0 mi NNW 10.4 mph 18.4 mph N/A   Clear
10:54 PM 26.1 °F 17.6 °F 16.0 °F 66% 30.15 in 10.0 mi NNW 8.1 mph - N/A   Clear
11:54 PM 27.0 °F 21.6 °F 17.1 °F 66% 30.21 in 10.0 mi West 4.6 mph - N/A   Clear